This is the latest recevied weather packets stored in our database for station/object N2PPN. If no packets are shown the sender has not sent any weather packets the latest 10 day(s).
| Time | Temp. | Humidity | Pressure | Rain* | Wind** | Luminosity | Snow |
|---|---|---|---|---|---|---|---|
| 1777486420 | 12.22° C | 78% | 1018 hPa | 0 mm | - | 547 W/m² | - |
| 1777486116 | 12.78° C | 77% | 1018 hPa | 0 mm | - | 692 W/m² | - |
| 1777485813 | 12.78° C | 75% | 1018.1 hPa | 0 mm | - | 689 W/m² | - |
| 1777485509 | 12.78° C | 75% | 1018 hPa | 0 mm | - | 666 W/m² | - |
| 1777485206 | 12.78° C | 75% | 1018 hPa | 0 mm | - | 716 W/m² | - |
| 1777484901 | 12.22° C | 74% | 1018.1 hPa | 0 mm | - | 504 W/m² | - |
| 1777484599 | 13.33° C | 72% | 1017.9 hPa | 0 mm | - | 625 W/m² | - |
| 1777484295 | 12.22° C | 77% | 1018 hPa | 0 mm | - | 697 W/m² | - |
| 1777483991 | 12.78° C | 74% | 1017.9 hPa | 0 mm | - | 661 W/m² | - |
| 1777483688 | 12.78° C | 76% | 1017.9 hPa | 0 mm | - | 709 W/m² | - |
| 1777483383 | 12.78° C | 75% | 1018 hPa | 0 mm | - | 738 W/m² | - |
| 1777483078 | 12.78° C | 77% | 1018.1 hPa | 0 mm | - | 754 W/m² | - |
| 1777482776 | 12.78° C | 73% | 1018 hPa | 0 mm | - | 348 W/m² | - |
| 1777482471 | 13.33° C | 73% | 1017.9 hPa | 0 mm | - | 463 W/m² | - |
| 1777482169 | 12.78° C | 75% | 1018.2 hPa | 0 mm | - | 577 W/m² | - |
| 1777481867 | 12.78° C | 75% | 1018.1 hPa | 0 mm | - | 655 W/m² | - |
| 1777481564 | 12.78° C | 76% | 1018.2 hPa | 0 mm | - | 420 W/m² | - |
| 1777481261 | 12.78° C | 76% | 1018.1 hPa | 0 mm | - | 461 W/m² | - |
| 1777480958 | 12.78° C | 76% | 1018.3 hPa | 0 mm | - | 785 W/m² | - |
| 1777480654 | 12.78° C | 75% | 1018.4 hPa | 0 mm | - | 688 W/m² | - |
| 1777480351 | 13.33° C | 74% | 1018.2 hPa | 0 mm | - | 647 W/m² | - |
| 1777480047 | 12.78° C | 74% | 1018.3 hPa | 0 mm | - | 568 W/m² | - |
| 1777479743 | 12.78° C | 72% | 1018.4 hPa | 0 mm | - | 661 W/m² | - |
| 1777479442 | 12.78° C | 72% | 1018.5 hPa | 0 mm | - | 740 W/m² | - |
| 1777479138 | 13.33° C | 71% | 1018.6 hPa | 0 mm | - | 741 W/m² | - |
* Rain latest hour (hover to see other rain measurements)
** Current wind speed in m/s (hover to see current wind gust speed)